Temperature
10 10 10 10 10 10 10 9 9 9 9 9 9 9 9 8 8 8 8 7 7 7 7 6 6 6 6 6 5 5 5 4 4 4 5 4 4 4 4 4 4 4 4
10 10 9 9 9 9 9 9 9 9 8 8 8 8 8 8 8 8 7 7 7 7 6 6 6 6 5 5 5 5 4 4 4 4 4 4 4 4 3 3 3 3 3
9 9 9 9 9 8 8 8 8 8 8 7 7 7 7 7 7 7 7 7 6 6 6 6 5 5 5 5 4 4 4 4 3 3 3 3 3 3 3 3 3 2 2
8 8 8 8 8 8 7 7 7 7 7 7 7 7 7 7 7 6 6 6 6 5 5 5 5 5 4 4 4 4 3 3 3 3 3 3 3 2 2 2 2 2 2
7 7 7 7 7 7 6 6 6 6 6 6 6 6 6 6 6 6 5 5 5 5 5 4 4 4 4 3 3 3 3 2 2 2 2 2 2 2 2 1 1 1 1
6 6 6 6 6 6 6 6 6 6 6 6 6 6 6 5 5 5 5 5 4 4 4 4 4 4 3 3 3 2 2 2 2 2 2 1 1 1 1 0 0 0 0
4 5 5 5 5 5 5 5 5 5 5 5 5 5 5 5 5 4 4 4 4 4 3 3 3 3 3 3 2 2 2 2 2 1 1 1 1 1 0 0 -0 -0 -1
4 4 4 4 4 4 4 4 4 4 4 4 4 4 4 4 4 4 4 4 3 3 3 3 3 2 2 2 2 2 2 1 1 1 1 1 1 0 -0 -1 -1 -1 -1
3 3 3 3 3 3 4 4 4 4 3 3 3 4 3 3 3 3 3 3 3 2 2 2 2 2 1 1 1 1 1 1 1 0 0 0 -0 -0 -1 -1 -1 -2 -2
3 3 2 2 3 3 3 3 3 3 3 3 3 3 3 3 2 2 2 2 2 2 2 1 1 1 1 0 0 0 0 0 0 0 -0 -0 -0 -1 -1 -1 -2 -2 -3
2 2 2 2 2 2 2 2 2 2 2 2 2 2 2 2 1 1 1 1 1 1 1 1 1 0 0 -0 -0 -0 -0 -1 -1 -1 -1 -1 -1 -1 -1 -2 -2 -3 -3
1 1 1 1 1 1 1 1 1 1 1 1 1 1 1 1 1 1 1 0 0 0 0 0 -0 -0 -0 -1 -1 -1 -1 -1 -1 -1 -1 -1 -2 -2 -2 -2 -3 -3 -3
0 0 0 1 1 1 1 1 0 0 0 0 0 0 0 0 0 0 0 -0 -0 -0 -0 -0 -1 -1 -1 -1 -1 -2 -2 -2 -2 -2 -2 -2 -2 -3 -3 -3 -3 -3 -3
-0 -0 -0 -0 -0 -0 -0 -0 -0 -0 -0 -0 -1 -1 -0 -0 -0 -1 -1 -1 -1 -1 -1 -1 -1 -1 -2 -2 -2 -2 -2 -2 -3 -3 -3 -3 -3 -3 -3 -3 -4 -4 -4
-1 -1 -1 -1 -1 -1 -1 -1 -1 -1 -1 -1 -1 -1 -1 -1 -1 -1 -2 -2 -2 -2 -2 -2 -2 -2 -2 -2 -3 -3 -3 -3 -3 -3 -3 -3 -3 -3 -4 -4 -4 -4 -5
-2 -2 -2 -2 -2 -2 -2 -2 -2 -2 -2 -2 -2 -2 -2 -2 -2 -2 -2 -2 -2 -2 -2 -2 -2 -3 -3 -3 -3 -3 -4 -4 -4 -4 -4 -4 -4 -4 -4 -5 -5 -5 -5
-3 -3 -2 -2 -2 -2 -2 -2 -3 -3 -3 -3 -3 -3 -3 -3 -3 -3 -3 -3 -3 -3 -3 -3 -3 -3 -4 -4 -4 -4 -4 -4 -4 -4 -4 -5 -5 -5 -5 -5 -5 -6 -6
-3 -3 -3 -3 -3 -3 -3 -3 -3 -3 -3 -3 -3 -3 -3 -3 -3 -3 -3 -3 -3 -3 -3 -3 -4 -4 -4 -4 -4 -5 -5 -5 -5 -5 -5 -5 -5 -6 -6 -6 -6 -6 -6
-4 -4 -4 -4 -4 -4 -4 -4 -4 -4 -4 -4 -4 -4 -4 -4 -4 -4 -4 -4 -4 -4 -4 -4 -4 -4 -5 -5 -5 -5 -5 -5 -5 -5 -5 -6 -6 -6 -6 -6 -6 -7 -7
-5 -5 -5 -5 -4 -4 -4 -4 -5 -5 -5 -5 -5 -5 -5 -5 -4 -4 -4 -5 -5 -5 -5 -5 -5 -5 -5 -5 -5 -5 -5 -5 -5 -6 -6 -6 -6 -6 -7 -7 -7 -7 -7
-5 -5 -5 -5 -5 -5 -5 -5 -5 -5 -5 -5 -5 -5 -6 -5 -5 -5 -5 -5 -5 -5 -5 -5 -6 -5 -6 -6 -6 -6 -6 -6 -6 -6 -6 -6 -7 -7 -7 -7 -7 -7 -8
-6 -6 -6 -6 -6 -6 -6 -6 -6 -6 -6 -6 -6 -6 -6 -6 -6 -6 -6 -6 -6 -6 -6 -6 -6 -6 -6 -6 -6 -6 -6 -6 -6 -6 -6 -7 -7 -7 -7 -7 -8 -8 -8
-6 -6 -6 -6 -6 -6 -6 -6 -6 -6 -6 -6 -6 -6 -6 -6 -6 -6 -6 -6 -6 -6 -6 -6 -6 -6 -6 -6 -6 -6 -6 -6 -6 -7 -7 -7 -7 -7 -8 -8 -8 -8 -8
-7 -7 -7 -7 -7 -7 -7 -7 -7 -7 -7 -7 -7 -7 -7 -7 -7 -7 -6 -7 -7 -6 -6 -6 -6 -6 -6 -6 -6 -6 -7 -7 -7 -7 -7 -7 -8 -8 -8 -8 -8 -8 -8
-7 -7 -7 -7 -7 -7 -7 -7 -7 -7 -7 -7 -7 -7 -7 -7 -7 -7 -7 -7 -7 -7 -7 -7 -7 -7 -7 -7 -7 -7 -7 -7 -7 -7 -8 -8 -8 -8 -8 -8 -8 -8 -8
-8 -7 -7 -7 -7 -7 -7 -8 -8 -8 -8 -8 -8 -7 -7 -7 -7 -7 -7 -7 -7 -7 -7 -7 -7 -7 -7 -7 -7 -7 -7 -7 -7 -8 -8 -8 -8 -8 -8 -8 -8 -8 -8
Wind_Speed
5 6 6 6 6 6 6 6 5 5 5 5 5 4 4 4 3 3 3 3 3 2 2 3 3 2 2 2 2 2 3 3 6 5 3 3 3 4 6 7 8 8 8
5 6 6 6 6 6 5 5 5 5 4 4 4 4 3 3 3 4 4 3 3 3 3 3 3 2 3 3 3 3 4 4 5 7 4 3 4 4 4 4 6 7 8
5 6 6 5 5 5 5 5 4 4 4 3 3 3 3 3 3 3 3 3 3 3 3 3 4 3 3 3 3 3 3 4 3 4 5 3 3 3 3 4 5 5 8
5 6 6 5 5 4 4 4 4 4 4 3 3 3 3 3 3 3 3 3 2 2 2 3 3 4 4 4 3 4 3 3 3 3 4 4 4 3 3 4 5 4 5
5 5 4 4 5 5 4 3 3 3 3 3 3 2 2 2 2 3 3 3 3 2 2 2 3 3 4 3 3 3 3 3 3 3 4 4 4 3 4 4 6 6 5
5 5 4 5 5 4 4 3 3 3 2 2 2 2 2 1 2 3 3 2 2 2 2 2 3 3 3 4 4 4 4 4 4 4 5 5 6 5 4 4 5 5 5
5 5 4 5 4 4 3 4 3 2 2 2 1 1 1 1 1 2 2 2 2 2 3 3 3 3 3 3 4 5 5 6 6 5 6 7 6 5 4 5 5 5 6
5 4 4 4 4 3 4 3 2 2 2 1 1 1 1 1 1 1 1 1 1 2 3 3 3 3 3 4 3 3 4 4 5 5 5 6 5 4 4 4 5 4 4
4 3 3 4 4 3 3 2 2 2 2 1 1 1 0 1 1 1 0 1 1 2 2 2 2 3 5 5 2 3 4 4 5 6 7 6 6 6 4 2 2 3 5
3 3 3 3 3 3 2 2 2 2 1 1 1 1 1 1 2 2 1 1 1 1 2 2 3 4 5 5 2 3 4 4 4 4 4 5 5 4 4 2 2 3 4
2 3 3 3 3 3 2 2 2 2 2 1 1 1 1 2 2 2 2 1 2 2 2 2 3 5 5 5 4 3 4 4 2 2 3 3 3 3 3 3 3 2 3
3 3 3 2 2 2 3 2 2 2 2 1 1 1 2 2 2 2 3 2 2 2 2 2 3 5 5 5 4 4 5 4 1 2 2 3 3 3 3 4 4 4 4
3 3 2 2 2 2 2 2 1 1 1 0 1 1 2 2 2 3 3 3 3 2 2 3 4 4 4 3 4 5 5 2 1 2 2 3 3 3 4 4 4 4 4
3 2 2 2 2 2 1 1 1 1 1 1 1 2 2 2 2 1 1 1 2 2 1 2 3 4 3 3 4 3 2 2 2 2 3 3 3 2 3 3 3 3 3
2 2 2 1 1 1 1 0 0 1 2 2 2 2 2 3 3 4 2 1 1 2 1 1 1 1 2 2 2 2 2 2 2 2 2 3 3 3 3 3 3 3 3
2 1 1 1 1 0 0 1 1 1 2 2 2 2 2 3 4 4 4 4 3 2 1 0 1 1 2 2 2 2 2 2 2 2 3 3 3 3 4 3 3 3 4
1 0 0 0 0 0 0 0 1 2 3 2 2 2 3 3 3 3 3 3 2 2 1 0 1 2 2 2 2 2 3 3 3 2 3 3 3 3 3 3 3 3 4
1 0 0 0 1 1 0 0 0 1 2 2 3 3 3 3 3 3 3 2 2 2 1 1 2 2 2 2 2 2 3 3 2 2 3 3 3 3 3 3 3 4 4
0 0 0 0 0 0 0 0 0 0 1 2 3 3 4 4 4 3 2 1 1 2 2 2 2 2 2 2 2 2 3 3 3 3 3 3 3 2 3 3 3 5 5
0 0 0 0 0 0 0 0 0 1 1 2 2 3 3 3 2 2 2 1 1 2 2 2 2 2 2 2 2 3 3 3 3 3 3 2 2 2 3 3 4 4 4
0 0 1 1 0 1 1 1 1 1 1 2 2 3 4 2 2 2 2 2 2 2 2 2 2 2 2 2 2 3 3 3 2 2 2 2 2 2 3 3 4 4 4
0 0 0 0 1 1 1 1 1 1 2 2 3 3 4 2 2 2 2 3 2 2 2 2 2 2 3 3 3 3 3 3 3 2 2 2 2 3 3 3 4 4 4
0 0 1 1 1 1 1 1 1 1 2 2 2 3 2 2 2 2 3 3 2 3 3 2 2 3 4 4 4 4 3 3 3 3 3 3 2 3 3 3 4 4 4
0 0 1 1 1 1 1 1 1 2 2 2 2 2 2 2 2 3 3 3 3 3 3 3 3 4 5 5 5 5 5 5 4 4 4 3 3 3 3 3 4 5 5
1 1 1 1 1 1 1 2 2 2 2 2 2 2 2 2 2 3 3 3 3 3 4 4 4 5 6 6 6 6 6 6 5 4 4 3 3 3 4 4 4 4 4
1 1 1 1 1 1 1 1 2 2 2 2 2 2 2 2 3 3 3 3 3 3 4 4 5 6 7 6 6 6 6 6 6 6 4 2 3 3 3 3 4 4 4
Wind_Direction
148 147 144 150 151 153 157 162 163 158 160 163 162 164 172 176 175 177 190 188 192 214 221 222 235 232 236 250 244 238 239 235 259 281 277 291 282 285 304 300 299 299 298
137 137 140 140 142 146 154 160 157 156 159 160 156 161 166 170 176 181 191 196 202 216 225 225 240 240 241 246 243 241 244 239 246 272 286 286 280 280 291 300 310 305 300
122 127 127 131 134 141 149 149 148 149 151 150 148 161 171 172 178 191 193 199 203 214 221 227 237 231 248 252 248 251 252 256 248 263 284 292 292 296 302 307 308 303 300
112 118 121 123 125 132 136 140 143 148 154 154 161 175 179 174 181 194 198 202 208 215 225 234 242 238 240 243 251 252 258 260 257 267 281 292 294 300 302 307 309 300 303
109 110 115 115 112 108 108 117 129 140 144 151 158 160 161 176 189 190 192 192 201 215 240 250 258 261 262 251 256 255 255 261 263 266 278 290 293 307 300 298 299 309 301
112 110 107 106 104 103 105 107 104 104 117 133 148 154 162 197 185 173 171 186 206 220 248 269 277 279 278 283 280 278 270 262 260 260 272 277 282 285 289 293 301 308 301
105 104 102 104 101 98 101 97 96 86 80 87 106 132 168 218 178 184 181 180 200 226 243 259 283 295 304 276 281 298 296 291 279 260 263 268 274 276 277 280 279 288 288
102 102 106 108 106 103 98 93 84 83 85 82 61 69 78 305 280 213 172 181 221 248 249 249 257 273 275 276 269 285 287 287 289 279 264 273 279 280 264 268 273 287 292
104 106 109 114 116 110 104 98 96 96 81 71 60 71 65 300 322 300 332 194 242 277 280 277 274 269 285 296 289 284 300 302 313 309 307 308 308 307 308 310 305 308 303
115 111 107 111 118 120 114 101 93 102 102 79 44 21 326 305 327 333 337 209 236 275 299 299 304 297 295 299 281 263 279 290 300 320 323 321 323 314 311 296 266 283 305
107 103 99 102 113 117 105 98 102 100 88 71 42 353 342 321 327 327 317 268 233 252 279 294 297 306 303 304 310 286 283 302 307 310 316 320 330 327 321 310 288 265 281
96 96 92 91 96 103 104 94 97 115 109 83 60 346 339 328 325 306 305 297 288 254 256 269 285 309 317 325 325 316 319 327 329 319 322 322 321 316 314 312 304 293 279
104 99 89 81 74 90 115 122 113 114 131 168 213 273 310 322 321 326 318 311 309 294 263 279 300 320 335 340 332 330 334 335 320 316 310 308 305 302 312 318 323 321 313
107 106 100 95 78 64 75 103 127 165 203 237 248 256 277 293 300 302 290 297 317 310 303 313 340 350 348 334 333 337 334 316 315 305 303 303 305 307 311 312 311 319 320
95 92 96 97 101 74 53 57 193 233 235 243 237 232 241 265 274 286 294 277 255 248 301 39 22 353 341 336 336 338 340 339 335 321 311 312 315 317 320 319 312 318 315
98 90 90 113 116 120 53 10 9 332 322 313 283 275 281 283 295 309 316 310 306 300 12 55 318 304 303 310 317 325 330 325 321 318 313 310 312 316 321 325 325 322 316
116 119 127 141 169 190 166 182 334 357 17 2 331 316 312 313 319 323 324 329 335 353 28 247 274 279 293 300 304 310 310 315 315 311 308 307 311 315 319 322 326 324 319
82 60 35 244 227 220 234 245 247 303 334 333 337 342 342 338 334 333 341 6 357 354 308 268 269 278 285 291 296 303 303 307 307 308 307 307 310 313 316 316 314 314 314
84 309 308 295 283 249 253 261 248 286 297 308 323 333 347 344 345 346 358 360 281 295 299 299 287 279 282 290 293 294 291 290 292 298 303 303 305 308 309 309 309 310 313
332 8 14 331 326 313 285 249 251 266 282 289 298 308 320 331 331 331 332 309 282 280 286 288 289 282 282 286 286 289 293 293 296 298 299 300 299 298 297 300 303 304 304
327 317 1 347 310 278 265 253 259 263 273 285 290 295 305 314 304 302 301 298 281 277 281 283 285 285 283 279 280 284 285 288 288 289 294 296 294 295 297 298 299 298 300
99 335 316 291 289 286 277 262 267 272 276 284 297 302 307 313 297 295 298 299 298 285 275 267 272 268 266 266 269 276 276 278 280 278 282 286 287 288 291 296 300 301 302
84 27 354 333 317 304 324 306 284 278 282 288 296 305 306 300 298 300 303 305 302 297 299 291 278 280 285 284 279 266 260 264 263 261 266 278 280 280 283 288 292 295 298
68 13 337 333 345 341 319 311 300 288 285 291 296 297 299 304 307 306 305 302 302 305 305 297 284 280 285 291 291 284 276 274 271 259 252 258 269 276 280 282 287 288 292
56 26 8 350 344 343 336 327 318 311 307 305 305 307 312 313 310 306 302 300 304 304 302 301 296 291 287 288 288 286 280 279 280 274 262 249 253 263 272 278 284 294 298
49 34 13 0 351 333 318 313 312 313 310 311 315 314 312 311 307 303 304 306 308 306 305 304 297 293 293 292 287 285 285 283 280 277 272 248 251 264 272 278 285 292 295
Height
1480 1483 1486 1489 1492 1494 1496 1498 1501 1502 1504 1506 1507 1508 1509 1510 1511 1511 1512 1512 1512 1512 1512 1512 1512 1512 1511 1510 1510 1509 1508 1507 1504 1501 1501 1499 1498 1496 1494 1492 1490 1487 1485
1478 1480 1483 1486 1489 1491 1493 1495 1497 1499 1501 1502 1504 1505 1506 1506 1507 1508 1508 1508 1509 1508 1508 1508 1508 1507 1506 1506 1505 1504 1503 1502 1500 1497 1495 1493 1492 1490 1488 1486 1484 1482 1480
1475 1478 1480 1483 1485 1487 1490 1492 1494 1496 1497 1499 1500 1501 1502 1503 1504 1504 1505 1505 1505 1505 1504 1504 1503 1503 1501 1501 1500 1499 1498 1497 1495 1493 1490 1488 1486 1485 1483 1481 1479 1476 1474
1473 1475 1478 1480 1483 1485 1487 1489 1491 1493 1495 1496 1497 1498 1499 1499 1500 1500 1501 1501 1501 1501 1500 1500 1499 1498 1497 1496 1495 1494 1493 1492 1490 1488 1485 1483 1481 1479 1477 1475 1472 1470 1468
1471 1474 1476 1478 1480 1482 1485 1487 1489 1491 1492 1493 1494 1495 1495 1496 1496 1496 1497 1497 1497 1496 1496 1496 1495 1494 1493 1492 1491 1490 1489 1487 1485 1483 1480 1478 1476 1474 1472 1470 1467 1464 1462
1470 1472 1474 1476 1478 1480 1483 1485 1486 1488 1489 1490 1491 1491 1492 1492 1493 1493 1493 1493 1493 1492 1492 1491 1490 1489 1488 1487 1486 1485 1485 1483 1480 1478 1475 1473 1471 1469 1467 1465 1463 1460 1456
1469 1471 1473 1475 1476 1479 1481 1483 1484 1485 1486 1487 1488 1488 1489 1489 1489 1489 1489 1489 1489 1488 1487 1486 1486 1485 1484 1483 1481 1480 1479 1478 1476 1474 1471 1468 1466 1464 1463 1460 1458 1456 1453
1468 1469 1471 1473 1475 1477 1479 1480 1482 1483 1483 1484 1484 1485 1485 1485 1486 1485 1485 1485 1484 1483 1483 1482 1481 1480 1479 1478 1477 1475 1474 1473 1471 1469 1467 1465 1463 1460 1459 1457 1454 1451 1449
1467 1468 1470 1472 1473 1475 1477 1478 1479 1480 1481 1481 1481 1481 1481 1482 1482 1482 1482 1481 1480 1479 1479 1478 1477 1476 1475 1474 1472 1470 1469 1467 1466 1464 1462 1460 1458 1456 1454 1452 1449 1446 1443
1466 1467 1469 1471 1472 1473 1474 1475 1476 1477 1478 1478 1478 1478 1478 1478 1478 1478 1478 1477 1476 1475 1474 1473 1473 1471 1470 1469 1468 1466 1463 1462 1461 1459 1458 1456 1454 1452 1450 1448 1446 1443 1440
1466 1467 1468 1469 1470 1471 1472 1473 1474 1475 1475 1475 1475 1475 1475 1475 1474 1474 1474 1473 1472 1471 1470 1469 1468 1467 1466 1465 1463 1462 1460 1458 1456 1454 1452 1451 1449 1448 1446 1444 1442 1440 1438
1465 1466 1466 1468 1469 1469 1470 1471 1471 1472 1472 1472 1472 1472 1472 1471 1471 1470 1470 1469 1469 1467 1466 1465 1464 1463 1462 1461 1459 1457 1456 1454 1452 1450 1448 1446 1445 1444 1442 1440 1438 1436 1435
1463 1464 1464 1466 1466 1467 1467 1468 1468 1469 1469 1469 1469 1468 1468 1468 1468 1467 1467 1466 1465 1464 1463 1461 1461 1459 1458 1456 1455 1453 1452 1450 1448 1446 1444 1443 1442 1440 1438 1436 1434 1433 1431
1461 1462 1462 1463 1463 1464 1464 1465 1465 1465 1465 1465 1465 1465 1465 1464 1464 1463 1463 1462 1461 1460 1459 1458 1457 1456 1454 1453 1451 1450 1448 1447 1445 1443 1442 1440 1439 1437 1435 1433 1431 1429 1427
1459 1459 1460 1461 1461 1461 1462 1462 1462 1462 1462 1462 1462 1462 1461 1461 1461 1461 1460 1458 1457 1457 1455 1454 1453 1452 1451 1450 1448 1447 1445 1444 1442 1441 1439 1437 1435 1434 1432 1430 1428 1426 1424
1457 1457 1457 1458 1458 1458 1459 1459 1459 1460 1459 1459 1459 1459 1458 1458 1457 1457 1456 1456 1454 1454 1453 1451 1450 1449 1448 1446 1445 1443 1442 1441 1439 1438 1436 1435 1433 1431 1429 1427 1426 1424 1421
1454 1454 1454 1455 1455 1455 1456 1456 1456 1456 1456 1456 1456 1455 1455 1455 1454 1453 1453 1452 1451 1450 1449 1448 1447 1446 1445 1444 1442 1441 1439 1438 1437 1435 1434 1432 1430 1428 1426 1424 1423 1421 1419
1452 1452 1452 1452 1453 1453 1453 1453 1453 1453 1453 1452 1453 1452 1452 1451 1451 1450 1449 1449 1448 1447 1446 1445 1444 1443 1442 1441 1440 1438 1437 1436 1434 1433 1431 1429 1428 1426 1424 1422 1420 1418 1417
1449 1449 1450 1450 1450 1451 1451 1451 1451 1451 1450 1449 1449 1449 1449 1448 1447 1447 1446 1445 1444 1443 1443 1442 1441 1440 1439 1438 1437 1436 1434 1433 1431 1430 1428 1427 1425 1423 1422 1420 1418 1417 1415
1447 1447 1447 1448 1448 1448 1448 1448 1448 1448 1448 1447 1446 1446 1445 1445 1444 1443 1443 1442 1441 1440 1440 1439 1438 1437 1436 1435 1434 1433 1431 1430 1429 1427 1426 1424 1422 1421 1419 1418 1416 1414 1412
1445 1445 1445 1446 1446 1446 1446 1446 1446 1446 1445 1444 1444 1444 1443 1442 1441 1440 1440 1439 1438 1437 1437 1436 1435 1435 1434 1433 1431 1430 1429 1427 1426 1424 1423 1421 1420 1419 1417 1416 1414 1412 1410
1443 1443 1443 1443 1443 1443 1443 1443 1443 1443 1442 1442 1441 1441 1440 1439 1438 1437 1437 1436 1435 1435 1434 1433 1432 1432 1431 1430 1428 1427 1426 1424 1423 1422 1420 1419 1418 1416 1415 1414 1412 1410 1408
1442 1441 1441 1441 1441 1441 1441 1441 1440 1440 1439 1439 1439 1438 1437 1436 1435 1434 1434 1433 1432 1432 1431 1430 1429 1428 1428 1427 1426 1424 1423 1421 1420 1419 1418 1416 1415 1414 1413 1411 1410 1408 1406
1440 1440 1440 1440 1439 1439 1439 1438 1438 1438 1437 1436 1436 1435 1434 1433 1433 1432 1431 1430 1429 1428 1428 1427 1426 1425 1425 1423 1422 1421 1420 1419 1418 1416 1415 1414 1413 1412 1411 1409 1408 1406 1404
1439 1439 1439 1438 1438 1437 1437 1436 1436 1435 1435 1434 1433 1433 1432 1431 1430 1429 1428 1427 1426 1426 1425 1424 1423 1422 1421 1420 1419 1418 1417 1416 1415 1414 1413 1412 1411 1410 1408 1407 1405 1404 1402
1438 1438 1438 1437 1437 1436 1436 1435 1434 1434 1433 1432 1431 1431 1430 1429 1428 1427 1426 1425 1424 1423 1422 1421 1420 1419 1419 1418 1417 1416 1415 1414 1413 1412 1411 1410 1409 1407 1406 1405 1403 1402 1400